Погода в Кандрыкуле

Россия / Республика Башкортостан     54°29′44″N   54°01′04″E
темп.,
°C
ветер,
м/с
пор.,
м/с
влажн.,
%
обл.,
%
осадки,
мм/ч
давл.,
гПа
погр.,
м
17 апреля, сб
сб1723:00+9св410855 0.0 1023330
02:00+8св37905 0.0 1023207
05:00+6св37925 0.0 1024171
08:00+6св37825 0.0 1024254
11:00+11св46585 0.0 1024568
14:00+14св55425 0.0 1023946
17:00+14св45374 0.0 10231064
20:00+11ссв37500 0.0 1022161
18 апреля, вс
вс1823:00+7св23560 0.0 102348
02:00+5св23600 0.0 102337
05:00+3св34690 0.0 102350
08:00+4ссв25681 0.0 1023169
11:00+9св46480 0.0 1023881
14:00+12св56411 0.0 10221373
17:00+12св56415 0.0 10221710
20:00+8св712605 0.0 1023689
19 апреля, пн
пн1923:00+5всв6126472 0.0 1025522
02:00+3всв712755 0.0 1026488
05:00+1всв61271100 0.0 1027414
08:00+3в71060100 0.0 1027760
11:00+3в71061100 0.0 1029786
14:00+4в6865100 0.0 1030963
17:00+7в684690 0.0 10291434
20:00+5в595131 0.0 1030335
20 апреля, вт
вт2023:00+2в510625 0.0 1031264
02:000вюв410580 0.0 1033299
05:00−1вюв411530 0.0 1034377
08:000вюв610450 0.0 1035599
11:00+4вюв68310 0.0 1034986
14:00+7вюв67280 0.0 10331287
17:00+9вюв67270 0.0 10321298
20:00+6вюв37420 0.0 1032125
21 апреля, ср
ср2123:00+3вюв3348100 0.0 103241
02:00+2юв2252100 0.0 103223
05:000юв345747 0.0 103360
08:00+3юв41246100 0.0 1033472
11:00+8ююв7103282 0.0 1031842
14:00+11ююв7102674 0.0 10301192
17:00+13ю792554 0.0 10301420
20:00+9ююв4938100 0.0 1030182